Year,Month,Day,Hour,Minute,Value (Times are PST for temperature in C)
2014,04,12,00,00,8.60
2014,04,12,00,01,8.60
2014,04,12,00,02,8.60
2014,04,12,00,03,8.60
2014,04,12,00,04,8.60
2014,04,12,00,05,8.60
2014,04,12,00,06,8.60
2014,04,12,00,07,8.70
2014,04,12,00,08,8.70
2014,04,12,00,09,8.70
2014,04,12,00,10,8.70
2014,04,12,00,11,8.70
2014,04,12,00,12,8.70
2014,04,12,00,13,8.70
2014,04,12,00,14,8.70
2014,04,12,00,15,8.70
2014,04,12,00,16,8.70
2014,04,12,00,17,8.70
2014,04,12,00,18,8.70
2014,04,12,00,19,8.70
2014,04,12,00,20,8.60
2014,04,12,00,21,8.60
2014,04,12,00,22,8.60
2014,04,12,00,23,8.60
2014,04,12,00,24,8.60
2014,04,12,00,25,8.60
2014,04,12,00,26,8.60
2014,04,12,00,27,8.50
2014,04,12,00,28,8.50
2014,04,12,00,29,8.40
2014,04,12,00,30,8.40
2014,04,12,00,31,8.40
2014,04,12,00,32,8.30
2014,04,12,00,33,8.30
2014,04,12,00,34,8.30
2014,04,12,00,35,8.20
2014,04,12,00,36,8.20
2014,04,12,00,37,8.20
2014,04,12,00,38,8.20
2014,04,12,00,39,8.20
2014,04,12,00,40,8.20
2014,04,12,00,41,8.20
2014,04,12,00,42,8.10
2014,04,12,00,43,8.10
2014,04,12,00,44,8.10
2014,04,12,00,45,8.00
2014,04,12,00,46,8.00
2014,04,12,00,47,8.00
2014,04,12,00,48,7.90
2014,04,12,00,49,7.90
2014,04,12,00,50,7.80
2014,04,12,00,51,7.80
2014,04,12,00,52,7.70
2014,04,12,00,53,7.70
2014,04,12,00,54,7.70
2014,04,12,00,55,7.70
2014,04,12,00,56,7.70
2014,04,12,00,57,7.70
2014,04,12,00,58,7.70
2014,04,12,00,59,7.70
2014,04,12,01,00,7.70
2014,04,12,01,01,7.80
2014,04,12,01,02,7.80
2014,04,12,01,03,7.90
2014,04,12,01,04,8.00
2014,04,12,01,05,8.10
2014,04,12,01,06,8.10
2014,04,12,01,07,8.10
2014,04,12,01,08,8.10
2014,04,12,01,09,8.10
2014,04,12,01,10,8.10
2014,04,12,01,11,8.20
2014,04,12,01,12,8.20
2014,04,12,01,13,8.20
2014,04,12,01,14,8.20
2014,04,12,01,15,8.10
2014,04,12,01,16,8.10
2014,04,12,01,17,8.10
2014,04,12,01,18,8.10
2014,04,12,01,19,8.10
2014,04,12,01,20,8.00
2014,04,12,01,21,8.00
2014,04,12,01,22,8.00
2014,04,12,01,23,7.90
2014,04,12,01,24,7.90
2014,04,12,01,25,7.90
2014,04,12,01,26,7.90
2014,04,12,01,27,7.90
2014,04,12,01,28,7.80
2014,04,12,01,29,7.80
2014,04,12,01,30,7.80
2014,04,12,01,31,7.80
2014,04,12,01,32,7.80
2014,04,12,01,33,7.80
2014,04,12,01,34,7.80
2014,04,12,01,35,7.80
2014,04,12,01,36,7.70
2014,04,12,01,37,7.70
2014,04,12,01,38,7.70
2014,04,12,01,39,7.70
2014,04,12,01,40,7.70
2014,04,12,01,41,7.70
2014,04,12,01,42,7.60
2014,04,12,01,43,7.60
2014,04,12,01,44,7.60
2014,04,12,01,45,7.60
2014,04,12,01,46,7.60
2014,04,12,01,47,7.60
2014,04,12,01,48,7.60
2014,04,12,01,49,7.60
2014,04,12,01,50,7.60
2014,04,12,01,51,7.60
2014,04,12,01,52,7.50
2014,04,12,01,53,7.40
2014,04,12,01,54,7.40
2014,04,12,01,55,7.30
2014,04,12,01,56,7.30
2014,04,12,01,57,7.20
2014,04,12,01,58,7.20
2014,04,12,01,59,7.10
2014,04,12,02,00,7.10
2014,04,12,02,01,7.00
2014,04,12,02,02,6.90
2014,04,12,02,03,6.90
2014,04,12,02,04,6.90
2014,04,12,02,05,6.80
2014,04,12,02,06,6.80
2014,04,12,02,07,6.80
2014,04,12,02,08,6.80
2014,04,12,02,09,6.80
2014,04,12,02,10,6.80
2014,04,12,02,11,6.70
2014,04,12,02,12,6.70
2014,04,12,02,13,6.70
2014,04,12,02,14,6.70
2014,04,12,02,15,6.70
2014,04,12,02,16,6.70
2014,04,12,02,17,6.70
2014,04,12,02,18,6.60
2014,04,12,02,19,6.60
2014,04,12,02,20,6.60
2014,04,12,02,21,6.60
2014,04,12,02,22,6.60
2014,04,12,02,23,6.60
2014,04,12,02,24,6.60
2014,04,12,02,25,6.50
2014,04,12,02,26,6.50
2014,04,12,02,27,6.50
2014,04,12,02,28,6.50
2014,04,12,02,29,6.40
2014,04,12,02,30,6.40
2014,04,12,02,31,6.40
2014,04,12,02,32,6.40
2014,04,12,02,33,6.30
2014,04,12,02,34,6.30
2014,04,12,02,35,6.30
2014,04,12,02,36,6.30
2014,04,12,02,37,6.20
2014,04,12,02,38,6.20
2014,04,12,02,39,6.20
2014,04,12,02,40,6.20
2014,04,12,02,41,6.20
2014,04,12,02,42,6.10
2014,04,12,02,43,6.10
2014,04,12,02,44,6.10
2014,04,12,02,45,6.10
2014,04,12,02,46,6.00
2014,04,12,02,47,6.00
2014,04,12,02,48,6.00
2014,04,12,02,49,5.90
2014,04,12,02,50,5.90
2014,04,12,02,51,5.90
2014,04,12,02,52,5.80
2014,04,12,02,53,5.80
2014,04,12,02,54,5.80
2014,04,12,02,55,5.80
2014,04,12,02,56,5.70
2014,04,12,02,57,5.70
2014,04,12,02,58,5.70
2014,04,12,02,59,5.60
2014,04,12,03,00,5.60
2014,04,12,03,01,5.60
2014,04,12,03,02,5.50
2014,04,12,03,03,5.50
2014,04,12,03,04,5.40
2014,04,12,03,05,5.40
2014,04,12,03,06,5.40
2014,04,12,03,07,5.30
2014,04,12,03,08,5.30
2014,04,12,03,09,5.30
2014,04,12,03,10,5.30
2014,04,12,03,11,5.20
2014,04,12,03,12,5.20
2014,04,12,03,13,5.20
2014,04,12,03,14,5.10
2014,04,12,03,15,5.10
2014,04,12,03,16,5.00
2014,04,12,03,17,5.00
2014,04,12,03,18,5.00
2014,04,12,03,19,4.90
2014,04,12,03,20,4.90
2014,04,12,03,21,4.90
2014,04,12,03,22,4.90
2014,04,12,03,23,4.90
2014,04,12,03,24,4.90
2014,04,12,03,25,4.80
2014,04,12,03,26,4.80
2014,04,12,03,27,4.80
2014,04,12,03,28,4.80
2014,04,12,03,29,4.80
2014,04,12,03,30,4.90
2014,04,12,03,31,4.90
2014,04,12,03,32,4.80
2014,04,12,03,33,4.80
2014,04,12,03,34,4.80
2014,04,12,03,35,4.80
2014,04,12,03,36,4.70
2014,04,12,03,37,4.70
2014,04,12,03,38,4.70
2014,04,12,03,39,4.70
2014,04,12,03,40,4.60
2014,04,12,03,41,4.60
2014,04,12,03,42,4.60
2014,04,12,03,43,4.50
2014,04,12,03,44,4.50
2014,04,12,03,45,4.40
2014,04,12,03,46,4.40
2014,04,12,03,47,4.40
2014,04,12,03,48,4.30
2014,04,12,03,49,4.30
2014,04,12,03,50,4.30
2014,04,12,03,51,4.20
2014,04,12,03,52,4.20
2014,04,12,03,53,4.20
2014,04,12,03,54,4.20
2014,04,12,03,55,4.20
2014,04,12,03,56,4.10
2014,04,12,03,57,4.10
2014,04,12,03,58,4.10
2014,04,12,03,59,4.10
2014,04,12,04,00,4.00
2014,04,12,04,01,4.00
2014,04,12,04,02,3.90
2014,04,12,04,03,3.90
2014,04,12,04,04,3.90
2014,04,12,04,05,3.80
2014,04,12,04,06,3.80
2014,04,12,04,07,3.80
2014,04,12,04,08,3.80
2014,04,12,04,09,3.80
2014,04,12,04,10,3.80
2014,04,12,04,11,3.70
2014,04,12,04,12,3.70
2014,04,12,04,13,3.80
2014,04,12,04,14,3.70
2014,04,12,04,15,3.70
2014,04,12,04,16,3.70
2014,04,12,04,17,3.70
2014,04,12,04,18,3.70
2014,04,12,04,19,3.60
2014,04,12,04,20,3.60
2014,04,12,04,21,3.60
2014,04,12,04,22,3.60
2014,04,12,04,23,3.60
2014,04,12,04,24,3.50
2014,04,12,04,25,3.50
2014,04,12,04,26,3.50
2014,04,12,04,27,3.50
2014,04,12,04,28,3.40
2014,04,12,04,29,3.40
2014,04,12,04,30,3.40
2014,04,12,04,31,3.40
2014,04,12,04,32,3.40
2014,04,12,04,33,3.30
2014,04,12,04,34,3.30
2014,04,12,04,35,3.30
2014,04,12,04,36,3.30
2014,04,12,04,37,3.30
2014,04,12,04,38,3.30
2014,04,12,04,39,3.30
2014,04,12,04,40,3.30
2014,04,12,04,41,3.20
2014,04,12,04,42,3.20
2014,04,12,04,43,3.20
2014,04,12,04,44,3.20
2014,04,12,04,45,3.20
2014,04,12,04,46,3.20
2014,04,12,04,47,3.20
2014,04,12,04,48,3.20
2014,04,12,04,49,3.20
2014,04,12,04,50,3.20
2014,04,12,04,51,3.10
2014,04,12,04,52,3.10
2014,04,12,04,53,3.10
2014,04,12,04,54,3.10
2014,04,12,04,55,3.10
2014,04,12,04,56,3.10
2014,04,12,04,57,3.10
2014,04,12,04,58,3.10
2014,04,12,04,59,3.00
2014,04,12,05,00,3.00
2014,04,12,05,01,3.00
2014,04,12,05,02,3.00
2014,04,12,05,03,3.00
2014,04,12,05,04,3.00
2014,04,12,05,05,3.00
2014,04,12,05,06,3.00
2014,04,12,05,07,3.10
2014,04,12,05,08,3.10
2014,04,12,05,09,3.10
2014,04,12,05,10,3.10
2014,04,12,05,11,3.10
2014,04,12,05,12,3.10
2014,04,12,05,13,3.10
2014,04,12,05,14,3.10
2014,04,12,05,15,3.10
2014,04,12,05,16,3.10
2014,04,12,05,17,3.10
2014,04,12,05,18,3.10
2014,04,12,05,19,3.00
2014,04,12,05,20,3.00
2014,04,12,05,21,3.00
2014,04,12,05,22,3.00
2014,04,12,05,23,2.90
2014,04,12,05,24,2.90
2014,04,12,05,25,2.90
2014,04,12,05,26,2.90
2014,04,12,05,27,2.90
2014,04,12,05,28,2.90
2014,04,12,05,29,2.80
2014,04,12,05,30,2.80
2014,04,12,05,31,2.80
2014,04,12,05,32,2.80
2014,04,12,05,33,2.80
2014,04,12,05,34,2.80
2014,04,12,05,35,2.70
2014,04,12,05,36,2.70
2014,04,12,05,37,2.70
2014,04,12,05,38,2.70
2014,04,12,05,39,2.70
2014,04,12,05,40,2.70
2014,04,12,05,41,2.70
2014,04,12,05,42,2.60
2014,04,12,05,43,2.60
2014,04,12,05,44,2.60
2014,04,12,05,45,2.60
2014,04,12,05,46,2.60
2014,04,12,05,47,2.60
2014,04,12,05,48,2.60
2014,04,12,05,49,2.60
2014,04,12,05,50,2.60
2014,04,12,05,51,2.50
2014,04,12,05,52,2.50
2014,04,12,05,53,2.50
2014,04,12,05,54,2.50
2014,04,12,05,55,2.50
2014,04,12,05,56,2.40
2014,04,12,05,57,2.40
2014,04,12,05,58,2.40
2014,04,12,05,59,2.40
2014,04,12,06,00,2.40
2014,04,12,06,01,2.40
2014,04,12,06,02,2.30
2014,04,12,06,03,2.30
2014,04,12,06,04,2.30
2014,04,12,06,05,2.30
2014,04,12,06,06,2.30
2014,04,12,06,07,2.30
2014,04,12,06,08,2.30
2014,04,12,06,09,2.20
2014,04,12,06,10,2.20
2014,04,12,06,11,2.20
2014,04,12,06,12,2.20
2014,04,12,06,13,2.20
2014,04,12,06,14,2.20
2014,04,12,06,15,2.20
2014,04,12,06,16,2.10
2014,04,12,06,17,2.10
2014,04,12,06,18,2.10
2014,04,12,06,19,2.10
2014,04,12,06,20,2.10
2014,04,12,06,21,2.10
2014,04,12,06,22,2.10
2014,04,12,06,23,2.10
2014,04,12,06,24,2.10
2014,04,12,06,25,2.00
2014,04,12,06,26,2.00
2014,04,12,06,27,2.00
2014,04,12,06,28,2.00
2014,04,12,06,29,2.00
2014,04,12,06,30,1.90
2014,04,12,06,31,1.90
2014,04,12,06,32,1.90
2014,04,12,06,33,1.90
2014,04,12,06,34,1.90
2014,04,12,06,35,1.90
2014,04,12,06,36,1.90
2014,04,12,06,37,1.90
2014,04,12,06,38,1.90
2014,04,12,06,39,1.90
2014,04,12,06,40,1.90
2014,04,12,06,41,1.90
2014,04,12,06,42,1.90
2014,04,12,06,43,1.90
2014,04,12,06,44,1.90
2014,04,12,06,45,1.90
2014,04,12,06,46,1.90
2014,04,12,06,47,1.90
2014,04,12,06,48,1.90
2014,04,12,06,49,1.90
2014,04,12,06,50,1.90
2014,04,12,06,51,1.90
2014,04,12,06,52,1.90
2014,04,12,06,53,1.90
2014,04,12,06,54,1.90
2014,04,12,06,55,1.90
2014,04,12,06,56,1.90
2014,04,12,06,57,1.90
2014,04,12,06,58,1.90
2014,04,12,06,59,1.90
2014,04,12,07,00,1.90
2014,04,12,07,01,1.90
2014,04,12,07,02,1.90
2014,04,12,07,03,1.90
2014,04,12,07,04,2.00
2014,04,12,07,05,2.00
2014,04,12,07,06,2.00
2014,04,12,07,07,2.00
2014,04,12,07,08,2.00
2014,04,12,07,09,2.00
2014,04,12,07,10,2.10
2014,04,12,07,11,2.10
2014,04,12,07,12,2.10
2014,04,12,07,13,2.10
2014,04,12,07,14,2.10
2014,04,12,07,15,2.20
2014,04,12,07,16,2.20
2014,04,12,07,17,2.20
2014,04,12,07,18,2.20
2014,04,12,07,19,2.30
2014,04,12,07,20,2.30
2014,04,12,07,21,2.30
2014,04,12,07,22,2.30
2014,04,12,07,23,2.30
2014,04,12,07,24,2.40
2014,04,12,07,25,2.40
2014,04,12,07,26,2.40
2014,04,12,07,27,2.50
2014,04,12,07,28,2.60
2014,04,12,07,29,2.60
2014,04,12,07,30,2.70
2014,04,12,07,31,2.70
2014,04,12,07,32,2.80
2014,04,12,07,33,2.80
2014,04,12,07,34,2.90
2014,04,12,07,35,2.90
2014,04,12,07,36,3.00
2014,04,12,07,37,3.00
2014,04,12,07,38,3.10
2014,04,12,07,39,3.10
2014,04,12,07,40,3.20
2014,04,12,07,41,3.20
2014,04,12,07,42,3.30
2014,04,12,07,43,3.30
2014,04,12,07,44,3.40
2014,04,12,07,45,3.40
2014,04,12,07,46,3.50
2014,04,12,07,47,3.50
2014,04,12,07,48,3.60
2014,04,12,07,49,3.70
2014,04,12,07,50,3.70
2014,04,12,07,51,3.80
2014,04,12,07,52,3.80
2014,04,12,07,53,3.90
2014,04,12,07,54,4.00
2014,04,12,07,55,4.10
2014,04,12,07,56,4.20
2014,04,12,07,57,4.20
2014,04,12,07,58,4.30
2014,04,12,07,59,4.30
2014,04,12,08,00,4.40
2014,04,12,08,01,4.50
2014,04,12,08,02,4.60
2014,04,12,08,03,4.70
2014,04,12,08,04,4.70
2014,04,12,08,05,4.90
2014,04,12,08,06,5.00
2014,04,12,08,07,5.10
2014,04,12,08,08,5.20
2014,04,12,08,09,5.30
2014,04,12,08,10,5.40
2014,04,12,08,11,5.50
2014,04,12,08,12,5.60
2014,04,12,08,13,5.70
2014,04,12,08,14,5.80
2014,04,12,08,15,5.90
2014,04,12,08,16,6.00
2014,04,12,08,17,6.10
2014,04,12,08,18,6.10
2014,04,12,08,19,6.20
2014,04,12,08,20,6.20
2014,04,12,08,21,6.30
2014,04,12,08,22,6.30
2014,04,12,08,23,6.40
2014,04,12,08,24,6.40
2014,04,12,08,25,6.50
2014,04,12,08,26,6.60
2014,04,12,08,27,6.70
2014,04,12,08,28,6.80
2014,04,12,08,29,6.80
2014,04,12,08,30,6.90
2014,04,12,08,31,7.00
2014,04,12,08,32,7.00
2014,04,12,08,33,7.10
2014,04,12,08,34,7.10
2014,04,12,08,35,7.20
2014,04,12,08,36,7.30
2014,04,12,08,37,7.30
2014,04,12,08,38,7.40
2014,04,12,08,39,7.50
2014,04,12,08,40,7.50
2014,04,12,08,41,7.60
2014,04,12,08,42,7.60
2014,04,12,08,43,7.70
2014,04,12,08,44,7.80
2014,04,12,08,45,7.90
2014,04,12,08,46,8.00
2014,04,12,08,47,8.00
2014,04,12,08,48,8.10
2014,04,12,08,49,8.20
2014,04,12,08,50,8.20
2014,04,12,08,51,8.30
2014,04,12,08,52,8.30
2014,04,12,08,53,8.30
2014,04,12,08,54,8.30
2014,04,12,08,55,8.30
2014,04,12,08,56,8.30
2014,04,12,08,57,8.30
2014,04,12,08,58,8.30
2014,04,12,08,59,8.30
2014,04,12,09,00,8.30
2014,04,12,09,01,8.30
2014,04,12,09,02,8.40
2014,04,12,09,03,8.40
2014,04,12,09,04,8.40
2014,04,12,09,05,8.40
2014,04,12,09,06,8.40
2014,04,12,09,07,8.50
2014,04,12,09,08,8.50
2014,04,12,09,09,8.50
2014,04,12,09,10,8.50
2014,04,12,09,11,8.60
2014,04,12,09,12,8.60
2014,04,12,09,13,8.60
2014,04,12,09,14,8.60
2014,04,12,09,15,8.70
2014,04,12,09,16,8.70
2014,04,12,09,17,8.70
2014,04,12,09,18,8.80
2014,04,12,09,19,8.80
2014,04,12,09,20,8.80
2014,04,12,09,21,8.80
2014,04,12,09,22,8.90
2014,04,12,09,23,8.90
2014,04,12,09,24,8.90
2014,04,12,09,25,8.90
2014,04,12,09,26,9.00
2014,04,12,09,27,9.10
2014,04,12,09,28,9.10
2014,04,12,09,29,9.20
2014,04,12,09,30,9.20
2014,04,12,09,31,9.30
2014,04,12,09,32,9.30
2014,04,12,09,33,9.40
2014,04,12,09,34,9.50
2014,04,12,09,35,9.50
2014,04,12,09,36,9.60
2014,04,12,09,37,9.60
2014,04,12,09,38,9.70
2014,04,12,09,39,9.70
2014,04,12,09,40,9.70
2014,04,12,09,41,9.70
2014,04,12,09,42,9.80
2014,04,12,09,43,9.80
2014,04,12,09,44,9.90
2014,04,12,09,45,9.90
2014,04,12,09,46,10.00
2014,04,12,09,47,10.00
2014,04,12,09,48,10.00
2014,04,12,09,49,10.10
2014,04,12,09,50,10.10
2014,04,12,09,51,10.10
2014,04,12,09,52,10.20
2014,04,12,09,53,10.20
2014,04,12,09,54,10.20
2014,04,12,09,55,10.30
2014,04,12,09,56,10.30
2014,04,12,09,57,10.40
2014,04,12,09,58,10.50
2014,04,12,09,59,10.60
2014,04,12,10,00,10.70
2014,04,12,10,01,10.70
2014,04,12,10,02,10.80
2014,04,12,10,03,10.80
2014,04,12,10,04,10.80
2014,04,12,10,05,11.00
2014,04,12,10,06,11.00
2014,04,12,10,07,11.00
2014,04,12,10,08,11.10
2014,04,12,10,09,11.10
2014,04,12,10,10,11.10
2014,04,12,10,11,11.20
2014,04,12,10,12,11.20
2014,04,12,10,13,11.20
2014,04,12,10,14,11.20
2014,04,12,10,15,11.30
2014,04,12,10,16,11.30
2014,04,12,10,17,11.30
2014,04,12,10,18,11.30
2014,04,12,10,19,11.30
2014,04,12,10,20,11.40
2014,04,12,10,21,11.40
2014,04,12,10,22,11.40
2014,04,12,10,23,11.40
2014,04,12,10,24,11.40
2014,04,12,10,25,11.50
2014,04,12,10,26,11.50
2014,04,12,10,27,11.50
2014,04,12,10,28,11.50
2014,04,12,10,29,11.60
2014,04,12,10,30,11.60
2014,04,12,10,31,11.70
2014,04,12,10,32,11.70
2014,04,12,10,33,11.80
2014,04,12,10,34,11.80
2014,04,12,10,35,11.80
2014,04,12,10,36,11.90
2014,04,12,10,37,12.00
2014,04,12,10,38,12.00
2014,04,12,10,39,12.00
2014,04,12,10,40,12.10
2014,04,12,10,41,12.10
2014,04,12,10,42,12.10
2014,04,12,10,43,12.10
2014,04,12,10,44,12.10
2014,04,12,10,45,12.10
2014,04,12,10,46,12.10
2014,04,12,10,47,12.20
2014,04,12,10,48,12.20
2014,04,12,10,49,12.20
2014,04,12,10,50,12.30
2014,04,12,10,51,12.30
2014,04,12,10,52,12.40
2014,04,12,10,53,12.40
2014,04,12,10,54,12.50
2014,04,12,10,55,12.50
2014,04,12,10,56,12.50
2014,04,12,10,57,12.50
2014,04,12,10,58,12.50
2014,04,12,10,59,12.50
2014,04,12,11,00,12.50
2014,04,12,11,01,12.50
2014,04,12,11,02,12.60
2014,04,12,11,03,12.60
2014,04,12,11,04,12.60
2014,04,12,11,05,12.60
2014,04,12,11,06,12.60
2014,04,12,11,07,12.60
2014,04,12,11,08,12.60
2014,04,12,11,09,12.60
2014,04,12,11,10,12.60
2014,04,12,11,11,12.70
2014,04,12,11,12,12.70
2014,04,12,11,13,12.70
2014,04,12,11,14,12.70
2014,04,12,11,15,12.70
2014,04,12,11,16,12.70
2014,04,12,11,17,12.70
2014,04,12,11,18,12.70
2014,04,12,11,19,12.80
2014,04,12,11,20,12.80
2014,04,12,11,21,12.80
2014,04,12,11,22,12.80
2014,04,12,11,23,12.90
2014,04,12,11,24,12.90
2014,04,12,11,25,13.00
2014,04,12,11,26,13.00
2014,04,12,11,27,13.00
2014,04,12,11,28,13.10
2014,04,12,11,29,13.10
2014,04,12,11,30,13.10
2014,04,12,11,31,13.10
2014,04,12,11,32,13.10
2014,04,12,11,33,13.10
2014,04,12,11,34,13.20
2014,04,12,11,35,13.20
2014,04,12,11,36,13.20
2014,04,12,11,37,13.20
2014,04,12,11,38,13.30
2014,04,12,11,39,13.30
2014,04,12,11,40,13.30
2014,04,12,11,41,13.30
2014,04,12,11,42,13.30
2014,04,12,11,43,13.20
2014,04,12,11,44,13.20
2014,04,12,11,45,13.20
2014,04,12,11,46,13.20
2014,04,12,11,47,13.20
2014,04,12,11,48,13.30
2014,04,12,11,49,13.30
2014,04,12,11,50,13.30
2014,04,12,11,51,13.30
2014,04,12,11,52,13.30
2014,04,12,11,53,13.30
2014,04,12,11,54,13.30
2014,04,12,11,55,13.40
2014,04,12,11,56,13.40
2014,04,12,11,57,13.40
2014,04,12,11,58,13.40
2014,04,12,11,59,13.50
2014,04,12,12,00,13.50
2014,04,12,12,01,13.60
2014,04,12,12,02,13.70
2014,04,12,12,03,13.70
2014,04,12,12,04,13.80
2014,04,12,12,05,13.80
2014,04,12,12,06,13.80
2014,04,12,12,07,13.80
2014,04,12,12,08,13.80
2014,04,12,12,09,13.80
2014,04,12,12,10,13.80
2014,04,12,12,11,13.80
2014,04,12,12,12,13.80
2014,04,12,12,13,13.80
2014,04,12,12,14,13.90
2014,04,12,12,15,14.00
2014,04,12,12,16,14.00
2014,04,12,12,17,14.10
2014,04,12,12,18,14.10
2014,04,12,12,19,14.10
2014,04,12,12,20,14.10
2014,04,12,12,21,14.10
2014,04,12,12,22,14.10
2014,04,12,12,23,14.10
2014,04,12,12,24,14.10
2014,04,12,12,25,14.10
2014,04,12,12,26,14.10
2014,04,12,12,27,14.10
2014,04,12,12,28,14.10
2014,04,12,12,29,14.10
2014,04,12,12,30,14.20
2014,04,12,12,31,14.20
2014,04,12,12,32,14.20
2014,04,12,12,33,14.30
2014,04,12,12,34,14.40
2014,04,12,12,35,14.40
2014,04,12,12,36,14.50
2014,04,12,12,37,14.50
2014,04,12,12,38,14.60
2014,04,12,12,39,14.60
2014,04,12,12,40,14.60
2014,04,12,12,41,14.60
2014,04,12,12,42,14.60
2014,04,12,12,43,14.60
2014,04,12,12,44,14.60
2014,04,12,12,45,14.60
2014,04,12,12,46,14.60
2014,04,12,12,47,14.70
2014,04,12,12,48,14.70
2014,04,12,12,49,14.80
2014,04,12,12,50,14.90
2014,04,12,12,51,14.90
2014,04,12,12,52,15.00
2014,04,12,12,53,15.10
2014,04,12,12,54,15.10
2014,04,12,12,55,15.10
2014,04,12,12,56,15.20
2014,04,12,12,57,15.20
2014,04,12,12,58,15.20
2014,04,12,12,59,15.20
2014,04,12,13,00,15.20
2014,04,12,13,01,15.20
2014,04,12,13,02,15.20
2014,04,12,13,03,15.20
2014,04,12,13,04,15.30
2014,04,12,13,05,15.30
2014,04,12,13,06,15.30
2014,04,12,13,07,15.30
2014,04,12,13,08,15.30
2014,04,12,13,09,15.30
2014,04,12,13,10,15.40
2014,04,12,13,11,15.30
2014,04,12,13,12,15.30
2014,04,12,13,13,15.30
2014,04,12,13,14,15.30
2014,04,12,13,15,15.30
2014,04,12,13,16,15.40
2014,04,12,13,17,15.50
2014,04,12,13,18,15.50
2014,04,12,13,19,15.60
2014,04,12,13,20,15.60
2014,04,12,13,21,15.70
2014,04,12,13,22,15.70
2014,04,12,13,23,15.70
2014,04,12,13,24,15.70
2014,04,12,13,25,15.80
2014,04,12,13,26,15.80
2014,04,12,13,27,15.80
2014,04,12,13,28,15.80
2014,04,12,13,29,15.80
2014,04,12,13,30,15.90
2014,04,12,13,31,15.80
2014,04,12,13,32,15.80
2014,04,12,13,33,15.80
2014,04,12,13,34,15.80
2014,04,12,13,35,15.80
2014,04,12,13,36,15.80
2014,04,12,13,37,15.90
2014,04,12,13,38,15.90
2014,04,12,13,39,16.00
2014,04,12,13,40,16.10
2014,04,12,13,41,16.10
2014,04,12,13,42,16.10
2014,04,12,13,43,16.20
2014,04,12,13,44,16.20
2014,04,12,13,45,16.20
2014,04,12,13,46,16.20
2014,04,12,13,47,16.20
2014,04,12,13,48,16.20
2014,04,12,13,49,16.20
2014,04,12,13,50,16.20
2014,04,12,13,51,16.30
2014,04,12,13,52,16.30
2014,04,12,13,53,16.40
2014,04,12,13,54,16.40
2014,04,12,13,55,16.40
2014,04,12,13,56,16.40
2014,04,12,13,57,16.40
2014,04,12,13,58,16.40
2014,04,12,13,59,16.40
2014,04,12,14,00,16.30
2014,04,12,14,01,16.30
2014,04,12,14,02,16.30
2014,04,12,14,03,16.30
2014,04,12,14,04,16.30
2014,04,12,14,05,16.40
2014,04,12,14,06,16.40
2014,04,12,14,07,16.50
2014,04,12,14,08,16.50
2014,04,12,14,09,16.50
2014,04,12,14,10,16.50
2014,04,12,14,11,16.60
2014,04,12,14,12,16.60
2014,04,12,14,13,16.60
2014,04,12,14,14,16.60
2014,04,12,14,15,16.60
2014,04,12,14,16,16.60
2014,04,12,14,17,16.60
2014,04,12,14,18,16.60
2014,04,12,14,19,16.70
2014,04,12,14,20,16.70
2014,04,12,14,21,16.70
2014,04,12,14,22,16.80
2014,04,12,14,23,16.80
2014,04,12,14,24,16.80
2014,04,12,14,25,16.80
2014,04,12,14,26,16.80
2014,04,12,14,27,16.80
2014,04,12,14,28,16.80
2014,04,12,14,29,16.80
2014,04,12,14,30,16.80
2014,04,12,14,31,16.80
2014,04,12,14,32,16.80
2014,04,12,14,33,16.80
2014,04,12,14,34,16.80
2014,04,12,14,35,16.80
2014,04,12,14,36,16.70
2014,04,12,14,37,16.70
2014,04,12,14,38,16.70
2014,04,12,14,39,16.70
2014,04,12,14,40,16.70
2014,04,12,14,41,16.80
2014,04,12,14,42,16.80
2014,04,12,14,43,16.90
2014,04,12,14,44,16.90
2014,04,12,14,45,17.10
2014,04,12,14,46,17.10
2014,04,12,14,47,17.20
2014,04,12,14,48,17.30
2014,04,12,14,49,17.30
2014,04,12,14,50,17.30
2014,04,12,14,51,17.40
2014,04,12,14,52,17.50
2014,04,12,14,53,17.50
2014,04,12,14,54,17.60
2014,04,12,14,55,17.60
2014,04,12,14,56,17.60
2014,04,12,14,57,17.50
2014,04,12,14,58,17.50
2014,04,12,14,59,17.50
2014,04,12,15,00,17.40
2014,04,12,15,01,17.50
2014,04,12,15,02,17.50
2014,04,12,15,03,17.50
2014,04,12,15,04,17.60
2014,04,12,15,05,17.60
2014,04,12,15,06,17.70
2014,04,12,15,07,17.70
2014,04,12,15,08,17.70
2014,04,12,15,09,17.80
2014,04,12,15,10,17.80
2014,04,12,15,11,17.70
2014,04,12,15,12,17.70
2014,04,12,15,13,17.70
2014,04,12,15,14,17.80
2014,04,12,15,15,17.80
2014,04,12,15,16,17.80
2014,04,12,15,17,17.80
2014,04,12,15,18,17.90
2014,04,12,15,19,18.00
2014,04,12,15,20,18.00
2014,04,12,15,21,18.10
2014,04,12,15,22,18.10
2014,04,12,15,23,18.10
2014,04,12,15,24,18.20
2014,04,12,15,25,18.20
2014,04,12,15,26,18.20
2014,04,12,15,27,18.20
2014,04,12,15,28,18.20
2014,04,12,15,29,18.20
2014,04,12,15,30,18.10
2014,04,12,15,31,18.00
2014,04,12,15,32,17.90
2014,04,12,15,33,17.90
2014,04,12,15,34,17.90
2014,04,12,15,35,17.90
2014,04,12,15,36,17.90
2014,04,12,15,37,17.80
2014,04,12,15,38,17.80
2014,04,12,15,39,17.70
2014,04,12,15,40,17.70
2014,04,12,15,41,17.70
2014,04,12,15,42,17.70
2014,04,12,15,43,17.70
2014,04,12,15,44,17.70
2014,04,12,15,45,17.70
2014,04,12,15,46,17.70
2014,04,12,15,47,17.70
2014,04,12,15,48,17.70
2014,04,12,15,49,17.70
2014,04,12,15,50,17.60
2014,04,12,15,51,17.60
2014,04,12,15,52,17.60
2014,04,12,15,53,17.60
2014,04,12,15,54,17.60
2014,04,12,15,55,17.60
2014,04,12,15,56,17.60
2014,04,12,15,57,17.60
2014,04,12,15,58,17.60
2014,04,12,15,59,17.60
2014,04,12,16,00,17.60
2014,04,12,16,01,17.70
2014,04,12,16,02,17.70
2014,04,12,16,03,17.80
2014,04,12,16,04,17.80
2014,04,12,16,05,17.80
2014,04,12,16,06,17.90
2014,04,12,16,07,18.00
2014,04,12,16,08,17.90
2014,04,12,16,09,17.90
2014,04,12,16,10,17.80
2014,04,12,16,11,17.80
2014,04,12,16,12,17.70
2014,04,12,16,13,17.70
2014,04,12,16,14,17.70
2014,04,12,16,15,17.70
2014,04,12,16,16,17.60
2014,04,12,16,17,17.60
2014,04,12,16,18,17.70
2014,04,12,16,19,17.70
2014,04,12,16,20,17.70
2014,04,12,16,21,17.80
2014,04,12,16,22,17.80
2014,04,12,16,23,17.80
2014,04,12,16,24,17.90
2014,04,12,16,25,17.90
2014,04,12,16,26,18.00
2014,04,12,16,27,18.10
2014,04,12,16,28,18.10
2014,04,12,16,29,18.10
2014,04,12,16,30,18.20
2014,04,12,16,31,18.20
2014,04,12,16,32,18.20
2014,04,12,16,33,18.20
2014,04,12,16,34,18.20
2014,04,12,16,35,18.20
2014,04,12,16,36,18.20
2014,04,12,16,37,18.20
2014,04,12,16,38,18.30
2014,04,12,16,39,18.40
2014,04,12,16,40,18.40
2014,04,12,16,41,18.50
2014,04,12,16,42,18.50
2014,04,12,16,43,18.50
2014,04,12,16,44,18.50
2014,04,12,16,45,18.50
2014,04,12,16,46,18.50
2014,04,12,16,47,18.60
2014,04,12,16,48,18.70
2014,04,12,16,49,18.80
2014,04,12,16,50,18.80
2014,04,12,16,51,18.90
2014,04,12,16,52,18.90
2014,04,12,16,53,18.90
2014,04,12,16,54,18.90
2014,04,12,16,55,18.80
2014,04,12,16,56,18.80
2014,04,12,16,57,18.80
2014,04,12,16,58,18.70
2014,04,12,16,59,18.70
2014,04,12,17,00,18.70
2014,04,12,17,01,18.70
2014,04,12,17,02,18.70
2014,04,12,17,03,18.70
2014,04,12,17,04,18.70
2014,04,12,17,05,18.70
2014,04,12,17,06,18.70
2014,04,12,17,07,18.80
2014,04,12,17,08,18.80
2014,04,12,17,09,18.80
2014,04,12,17,10,18.80
2014,04,12,17,11,18.80
2014,04,12,17,12,18.80
2014,04,12,17,13,18.80
2014,04,12,17,14,18.80
2014,04,12,17,15,18.80
2014,04,12,17,16,18.80
2014,04,12,17,17,18.80
2014,04,12,17,18,18.80
2014,04,12,17,19,18.90
2014,04,12,17,20,18.90
2014,04,12,17,21,18.90
2014,04,12,17,22,18.90
2014,04,12,17,23,19.00
2014,04,12,17,24,19.00
2014,04,12,17,25,19.00
2014,04,12,17,26,19.00
2014,04,12,17,27,19.00
2014,04,12,17,28,19.10
2014,04,12,17,29,19.00
2014,04,12,17,30,19.00
2014,04,12,17,31,18.90
2014,04,12,17,32,18.90
2014,04,12,17,33,18.90
2014,04,12,17,34,18.90
2014,04,12,17,35,18.90
2014,04,12,17,36,18.90
2014,04,12,17,37,18.90
2014,04,12,17,38,18.90
2014,04,12,17,39,18.90
2014,04,12,17,40,18.80
2014,04,12,17,41,18.80
2014,04,12,17,42,18.80
2014,04,12,17,43,18.70
2014,04,12,17,44,18.70